Content
SEND FEEDBACK

Daily
Averages
Monthly
Summary
South Korea

KANGNUNG, SOUTH KOREA


Home > Asia > South Korea
Elevation: 89 feet     Latitude: 37 45N     Longitude: 128 54E

WEATHER
 
SELECT A DAY
Number of Records: 109,599;   Date Range: 2/28/02 - 10/18/14
 
SHARE

PRINT THIS DATA

[ ← Previous Day ]
WEATHER ALMANAC - FEBRUARY 16, 2013
[ Next Day → ]
[ °C ]   °F
Weather ElementAverageHighLow
Temperature28.2 °F32 °F (12:00 pm)23 °F (5:00 am)
Dewpoint7.5 °F14 °F (5:00 pm)1.4 °F (1:00 am)
Humidity42.4 %55 % (8:00 pm)32 % (11:00 am)
Barometer30.29 in30.33 in (8:00 am)30.21 in (1:00 am)
Wind Speed6.6 mph9.2 mph (1:00 am)
Weather ElementAverage
Visibility6.2 mi
Wind DirectionSSW (204.8 °)

Weather ElementTotal
Precipitation---
Heating Degree Days37.5 (Base 65)
Averaged from 23 records on February 16, 2013
WEATHER CONDITIONS BREAKOUT
WIND DIRECTION BREAKOUT
WEATHER BY HOUR - FEBRUARY 16, 2013
[ °C ]   °F
Local TimeTemperatureDewpointHumidityBarometerVisibilityWind DirectionWind SpeedGust SpeedPrecipitationEventsConditions
1:00 AM26.6 °F1.4 °F34 %30.21 inWest (270°)9.2 mph
2:00 AM24.8 °F1.4 °F36 %30.24 inWest (280°)8.1 mph
3:00 AM24.8 °F1.4 °F36 %30.24 inWest (270°)8.1 mph
4:00 AM24.8 °F1.4 °F36 %30.24 inWest (270°)8.1 mph
5:00 AM23.0 °F3.2 °F43 %30.27 inWest (270°)8.1 mph
6:00 AM23.0 °F3.2 °F43 %30.30 inWest (270°)8.1 mph
7:00 AM23.0 °F3.2 °F43 %30.30 inWest (270°)9.2 mph
8:00 AM23.0 °F3.2 °F43 %30.33 in6.2 miWest (270°)9.2 mphPartly Cloudy
9:00 AM28.4 °F5.0 °F37 %30.33 inWSW (250°)6.9 mphClear
10:00 AM30.2 °F6.8 °F37 %30.33 inNW (310°)6.9 mphClear
11:00 AM30.2 °F3.2 °F32 %30.33 inNW (310°)4.6 mphClear
12:00 PM32.0 °F6.8 °F35 %30.33 inENE (60°)5.8 mphClear
1:00 PM32.0 °F5.0 °F32 %30.30 inNE (50°)5.8 mphClear
2:00 PM32.0 °F8.6 °F38 %30.30 inENE (60°)6.9 mphClear
3:00 PM32.0 °F10.4 °F41 %30.27 inEast (90°)6.9 mphClear
4:00 PM32.0 °F12.2 °F44 %30.30 inEast (100°)5.8 mphClear
5:00 PM32.0 °F14.0 °F48 %30.27 inEast (100°)5.8 mphClear
6:00 PM30.2 °F14.0 °F51 %30.30 inSSE (160°)3.5 mphClear
7:00 PM30.2 °F14.0 °F51 %30.30 inSW (220°)3.5 mphClear
8:00 PM28.4 °F14.0 °F55 %30.30 inSSW (200°)5.8 mph
9:00 PM28.4 °F14.0 °F55 %30.30 inSSW (210°)5.8 mph
10:00 PM28.4 °F14.0 °F55 %30.30 inSSW (210°)5.8 mph
11:00 PM28.4 °F12.2 °F51 %30.27 inSSW (210°)4.6 mph
Hourly data recorded from RKNY, located miles away from Kangnung, South Korea







STORIES FROM OUR PARTNERS